Terug naar catalogus

ATLAS 5 CENTAUR DEB

LostHEO
NORAD 46653·DEBRIS·🇺🇸 United States

Gelanceerd Sep 8, 2009 vanaf Cape Canaveral Space Force Station

Loading…

Volgende Passages (komende 24 uur)

TLE

VerouderdSource: Space-Track

Epoch: Oct 20, 2024, 09:47 UTC

1 46653U 09047C   24294.40831247 -.00000053  00000-0  00000-0 0  9993
2 46653  23.4826 259.8587 5114823 152.4171 248.0768  1.94961697 34914

Volg ATLAS 5 CENTAUR DEB in realtime met AllMySat

Download on the App Store